When you browse on this site, cookies collect data to enhance your experience and personalize the content and advertising you see.
Visit our Privacy Policy to learn more. By continuing to use the site, you agree to this use of cookies and data.
  • In Romania
  • List of Countries
  • For 7 days
  • Water Temperature
  • Weather Map
  • Weather Widgets
  • user-avatar
    Login

    Hourly Weather Brest

    Today, 29 January, Wednesday

    Time Temperature Precipitation Wind Pressure Humidity
    00:00 +1°C° 0 mm 3 mps 736 mmHg 90%
    01:00 +1°C° 0 mm 3 mps 736 mmHg 89%
    02:00 +1°C° 0 mm 2 mps 735 mmHg 90%
    03:00 +1°C° 0.6 mm 2 mps 735 mmHg 93%
    04:00 +1°C° 0.6 mm 2 mps 735 mmHg 95%
    05:00 +1°C° 0.6 mm 2 mps 734 mmHg 98%
    06:00 0°C° 1.3 mm 3 mps 735 mmHg 96%
    07:00 0°C° 1.3 mm 4 mps 735 mmHg 95%
    08:00 0°C° 0 mm 5 mps 736 mmHg 93%
    09:00 0°C° 0.1 mm 5 mps 736 mmHg 87%
    10:00 0°C° 0.1 mm 5 mps 736 mmHg 82%
    11:00 0°C° 0.1 mm 5 mps 736 mmHg 77%
    12:00 +1°C° 0 mm 5 mps 736 mmHg 74%
    13:00 +1°C° 0 mm 6 mps 736 mmHg 71%
    14:00 +1°C° 0 mm 6 mps 737 mmHg 68%
    15:00 +1°C° 0.1 mm 6 mps 736 mmHg 77%
    16:00 -1°C° 0.1 mm 6 mps 736 mmHg 86%
    17:00 -1°C° 0.1 mm 5 mps 736 mmHg 95%
    18:00 -2°C° 0.4 mm 6 mps 736 mmHg 95%
    19:00 -2°C° 0.4 mm 6 mps 737 mmHg 96%
    20:00 -2°C° 0.4 mm 6 mps 737 mmHg 96%
    21:00 -2°C° 0.4 mm 7 mps 737 mmHg 94%
    22:00 -1°C° 0.4 mm 7 mps 737 mmHg 92%
    23:00 -1°C° 0.4 mm 7 mps 738 mmHg 91%

    Tomorrow, 30 January, Thursday

    Time Temperature Precipitation Wind Pressure Humidity
    00:00 -1°C° 0.1 mm 7 mps 738 mmHg 92%
    01:00 -1°C° 0.1 mm 6 mps 739 mmHg 94%
    02:00 -1°C° 0.1 mm 6 mps 739 mmHg 95%
    03:00 -1°C° 0.1 mm 6 mps 739 mmHg 94%
    04:00 -1°C° 0.1 mm 6 mps 739 mmHg 93%
    05:00 -1°C° 0.1 mm 6 mps 739 mmHg 93%
    06:00 0°C° 0.1 mm 5 mps 740 mmHg 93%
    07:00 0°C° 0.1 mm 5 mps 740 mmHg 93%
    08:00 0°C° 0.1 mm 5 mps 741 mmHg 93%
    09:00 0°C° 0 mm 5 mps 741 mmHg 90%
    10:00 0°C° 0 mm 5 mps 741 mmHg 86%
    11:00 -1°C° 0 mm 6 mps 741 mmHg 82%
    12:00 +1°C° 0 mm 6 mps 741 mmHg 80%
    13:00 +1°C° 0 mm 6 mps 742 mmHg 78%
    14:00 +2°C° 0 mm 6 mps 742 mmHg 76%
    15:00 +1°C° 0 mm 6 mps 742 mmHg 76%
    16:00 +1°C° 0 mm 5 mps 742 mmHg 76%
    17:00 +1°C° 0 mm 5 mps 742 mmHg 76%
    18:00 +1°C° 0 mm 4 mps 742 mmHg 76%
    19:00 +1°C° 0 mm 4 mps 742 mmHg 76%
    20:00 +2°C° 0 mm 3 mps 742 mmHg 76%
    21:00 +1°C° 0.2 mm 3 mps 741 mmHg 83%
    22:00 0°C° 0.2 mm 4 mps 741 mmHg 90%
    23:00 0°C° 0.2 mm 4 mps 740 mmHg 96%

    Day after tomorrow, 31 January, Friday

    Time Temperature Precipitation Wind Pressure Humidity
    00:00 +1°C° 0.3 mm 4 mps 740 mmHg 96%
    01:00 +1°C° 0.3 mm 4 mps 740 mmHg 95%
    02:00 +3°C° 0.3 mm 4 mps 739 mmHg 94%
    03:00 +3°C° 0.4 mm 4 mps 739 mmHg 94%
    04:00 +3°C° 0.4 mm 4 mps 738 mmHg 94%
    05:00 +3°C° 0.4 mm 4 mps 738 mmHg 94%
    06:00 +3°C° 0.3 mm 4 mps 737 mmHg 93%
    07:00 +3°C° 0.3 mm 4 mps 737 mmHg 92%
    08:00 +3°C° 0.3 mm 4 mps 736 mmHg 91%
    09:00 +1°C° 1.5 mm 4 mps 736 mmHg 93%
    10:00 +1°C° 1.5 mm 4 mps 735 mmHg 95%
    11:00 0°C° 1.5 mm 4 mps 735 mmHg 96%
    12:00 +1°C° 1.2 mm 3 mps 735 mmHg 96%
    13:00 +2°C° 1.2 mm 2 mps 735 mmHg 96%
    14:00 +2°C° 1.2 mm 0 mps 735 mmHg 97%
    15:00 +3°C° 0.1 mm 1 mps 736 mmHg 96%
    16:00 +3°C° 0.1 mm 2 mps 737 mmHg 96%
    17:00 +3°C° 0.1 mm 2 mps 737 mmHg 95%
    18:00 +3°C° 0 mm 2 mps 738 mmHg 95%
    19:00 +3°C° 0 mm 2 mps 740 mmHg 95%
    20:00 +2°C° 0 mm 3 mps 741 mmHg 94%
    21:00 +3°C° 0 mm 2 mps 741 mmHg 95%
    22:00 +2°C° 0 mm 2 mps 741 mmHg 95%
    23:00 +2°C° 0 mm 2 mps 742 mmHg 95%

    1 February, Saturday

    Time Temperature Precipitation Wind Pressure Humidity
    00:00 +2°C° 0 mm 2 mps 742 mmHg 94%
    01:00 +3°C° 0 mm 2 mps 742 mmHg 94%
    02:00 +3°C° 0 mm 2 mps 743 mmHg 94%
    03:00 +2°C° 0.4 mm 3 mps 743 mmHg 95%
    04:00 +2°C° 0.4 mm 3 mps 742 mmHg 96%
    05:00 +3°C° 0.4 mm 3 mps 742 mmHg 97%
    06:00 +3°C° 0.1 mm 3 mps 742 mmHg 96%
    07:00 +3°C° 0.1 mm 4 mps 742 mmHg 95%
    08:00 +3°C° 0.1 mm 4 mps 742 mmHg 94%
    09:00 +4°C° 0.1 mm 4 mps 742 mmHg 94%
    10:00 +4°C° 0.1 mm 4 mps 742 mmHg 93%
    11:00 +3°C° 0.1 mm 5 mps 742 mmHg 93%
    12:00 +5°C° 0 mm 5 mps 742 mmHg 89%
    13:00 +5°C° 0 mm 5 mps 742 mmHg 85%
    14:00 +6°C° 0 mm 5 mps 741 mmHg 81%
    15:00 +6°C° 0 mm 5 mps 741 mmHg 82%
    16:00 +6°C° 0 mm 5 mps 741 mmHg 83%
    17:00 +6°C° 0 mm 5 mps 740 mmHg 84%
    18:00 +6°C° 0 mm 5 mps 740 mmHg 84%
    19:00 +5°C° 0 mm 6 mps 740 mmHg 83%
    20:00 +5°C° 0 mm 6 mps 739 mmHg 83%
    21:00 +5°C° 0.1 mm 6 mps 739 mmHg 85%
    22:00 +5°C° 0.1 mm 6 mps 738 mmHg 87%
    23:00 +5°C° 0.1 mm 6 mps 737 mmHg 89%

    2 February, Sunday

    Time Temperature Precipitation Wind Pressure Humidity
    00:00 +5°C° 0.6 mm 6 mps 737 mmHg 91%
    01:00 +5°C° 0.6 mm 6 mps 737 mmHg 92%
    02:00 +7°C° 0.6 mm 6 mps 737 mmHg 94%
    03:00 +7°C° 0.2 mm 6 mps 738 mmHg 88%
    04:00 +6°C° 0.2 mm 7 mps 738 mmHg 83%
    05:00 +6°C° 0.2 mm 7 mps 738 mmHg 77%
    06:00 +5°C° 0 mm 7 mps 739 mmHg 77%
    07:00 +4°C° 0 mm 6 mps 740 mmHg 76%
    08:00 +3°C° 0 mm 6 mps 741 mmHg 76%
    09:00 +3°C° 0 mm 6 mps 741 mmHg 73%
    10:00 +3°C° 0 mm 7 mps 742 mmHg 69%
    11:00 +2°C° 0 mm 8 mps 743 mmHg 66%
    12:00 +3°C° 0 mm 7 mps 743 mmHg 67%
    13:00 +3°C° 0 mm 7 mps 743 mmHg 69%
    14:00 +3°C° 0 mm 7 mps 743 mmHg 70%
    15:00 +3°C° 0.1 mm 7 mps 743 mmHg 76%
    16:00 +3°C° 0.1 mm 7 mps 743 mmHg 81%
    17:00 +3°C° 0.1 mm 7 mps 743 mmHg 86%
    18:00 +3°C° 0.1 mm 7 mps 743 mmHg 79%
    19:00 +3°C° 0.1 mm 7 mps 744 mmHg 71%
    20:00 +2°C° 0.1 mm 8 mps 744 mmHg 64%
    21:00 +3°C° 0 mm 7 mps 744 mmHg 65%
    22:00 +2°C° 0 mm 7 mps 745 mmHg 66%
    23:00 +2°C° 0 mm 6 mps 745 mmHg 67%

    3 February, Monday

    Time Temperature Precipitation Wind Pressure Humidity
    00:00 +2°C° 0 mm 6 mps 745 mmHg 69%
    01:00 +2°C° 0 mm 6 mps 745 mmHg 71%
    02:00 +1°C° 0 mm 6 mps 745 mmHg 73%
    03:00 +1°C° 0 mm 6 mps 745 mmHg 78%
    04:00 +1°C° 0 mm 5 mps 745 mmHg 83%
    05:00 +1°C° 0 mm 5 mps 745 mmHg 88%
    06:00 +1°C° 0.1 mm 4 mps 744 mmHg 91%
    07:00 +1°C° 0.1 mm 4 mps 744 mmHg 93%
    08:00 +2°C° 0.1 mm 3 mps 744 mmHg 95%
    09:00 +2°C° 0.2 mm 3 mps 744 mmHg 95%
    10:00 +2°C° 0.2 mm 3 mps 744 mmHg 94%
    11:00 +4°C° 0.2 mm 2 mps 744 mmHg 94%
    12:00 +3°C° 0 mm 3 mps 744 mmHg 92%
    13:00 +3°C° 0 mm 3 mps 744 mmHg 90%
    14:00 +4°C° 0 mm 4 mps 744 mmHg 87%
    15:00 +4°C° 0.1 mm 4 mps 745 mmHg 88%
    16:00 +4°C° 0.1 mm 3 mps 745 mmHg 89%
    17:00 +4°C° 0.1 mm 3 mps 746 mmHg 90%
    18:00 +4°C° 0.1 mm 4 mps 746 mmHg 89%
    19:00 +4°C° 0.1 mm 4 mps 746 mmHg 89%
    20:00 +4°C° 0.1 mm 4 mps 747 mmHg 88%
    21:00 +4°C° 0 mm 4 mps 747 mmHg 89%
    22:00 +3°C° 0 mm 3 mps 747 mmHg 90%
    23:00 +3°C° 0 mm 3 mps 748 mmHg 90%
    Show more